GW1682 Weather Reports


Display with metric or nautical units.
time (UTC)temp
F
wind
direction
speed
MPH
gust
MPH
rain 1hr
in
rain 24hr
in
rain mn
in
humidity
%
barometer
mb
20260502163004 54 0 6.0 16.0 0.00 0.00 0.00 46 1015.8
20260502161504 54 32 6.0 20.0 0.00 0.00 0.00 44 1015.8
20260502151506 54 8 5.0 19.0 0.00 0.00 0.00 46 1016.2
20260502123006 56 11 9.0 17.0 0.00 0.00 0.00 45 1016.4
20260502114506 56 31 5.0 16.0 0.00 0.00 0.00 47 1016.5
20260502113007 57 338 10.0 21.0 0.00 0.00 0.00 48 1016.5
20260502111507 55 336 6.0 18.0 0.00 0.00 0.00 51 1016.7
20260502110006 55 8 4.0 16.0 0.00 0.00 0.00 54 1016.7
20260502103004 55 41 5.0 26.0 0.00 0.00 0.00 53 1017.2
20260502101506 55 345 9.0 16.0 0.00 0.00 0.00 55 1017.0
20260502091506 56 0 8.0 19.0 0.00 0.00 0.00 54 1017.0
20260502070000 55 0 6.0 18.0 0.00 0.00 0.00 55 1016.6
20260502064458 55 289 7.0 17.0 0.00 0.00 0.00 53 1016.6
20260502062958 54 7 5.0 20.0 0.00 0.00 0.00 55 1016.1
20260502055958 53 78 9.0 16.0 0.00 0.00 0.00 60 1016.3
20260502054457 52 0 3.0 14.0 0.00 0.00 0.00 65 1016.4
20260502045955 52 63 4.0 15.0 0.00 0.00 0.00 67 1016.8
20260502044501 51 293 6.0 15.0 0.00 0.00 0.00 67 1016.7
20260502041453 51 59 5.0 12.0 0.00 0.00 0.00 71 1016.6
20260502035955 51 0 4.0 13.0 0.00 0.00 0.00 74 1016.8
20260502034452 50 30 3.0 12.0 0.00 0.00 0.00 75 1016.8
20260502032954 51 353 3.0 16.0 0.00 0.00 0.00 72 1016.7
20260502031455 51 355 3.0 16.0 0.00 0.00 0.00 70 1016.4
20260502025954 51 23 3.0 14.0 0.00 0.00 0.00 69 1016.4
20260502024457 52 41 3.0 12.0 0.00 0.00 0.00 69 1016.6
20260502021453 52 350 3.0 14.0 0.00 0.00 0.00 68 1016.5
20260502020000 51 8 3.0 10.0 0.00 0.00 0.00 70 1016.6
20260502014455 51 32 4.0 10.0 0.00 0.00 0.00 72 1016.5
20260502012953 51 324 5.0 15.0 0.00 0.00 0.00 72 1016.7
20260502011455 51 25 2.0 10.0 0.00 0.00 0.00 72 1016.7
20260502005955 51 34 3.0 12.0 0.00 0.00 0.00 72 1016.7
20260502004458 51 34 5.0 13.0 0.00 0.00 0.00 72 1016.7
20260502002954 52 333 4.0 13.0 0.00 0.00 0.00 73 1016.8
20260502001453 51 298 5.0 10.0 0.00 0.00 0.00 73 1016.9
20260501235952 52 345 4.0 11.0 0.00 0.00 0.00 72 1017.1
20260501234452 52 338 6.0 11.0 0.00 0.00 0.00 72 1017.1
20260501232954 52 348 7.0 12.0 0.00 0.00 0.00 71 1017.3
20260501231451 52 354 4.0 11.0 0.00 0.00 0.00 70 1017.3
20260501225952 53 0 5.0 13.0 0.00 0.00 0.00 68 1017.4
20260501224455 53 38 3.0 9.0 0.00 0.00 0.00 68 1017.6
20260501222951 53 0 3.0 9.0 0.00 0.00 0.00 69 1018.0
20260501221451 53 4 3.0 11.0 0.00 0.00 0.00 69 1018.2
20260501214450 53 343 4.0 12.0 0.00 0.00 0.00 68 1018.2
20260501212949 53 13 4.0 10.0 0.00 0.00 0.00 68 1018.2
20260501211446 53 305 4.0 13.0 0.00 0.00 0.00 68 1018.4
20260501205950 53 13 4.0 15.0 0.00 0.00 0.00 68 1018.5
20260501204501 53 347 2.0 7.0 0.00 0.00 0.00 67 1018.6
20260501202950 53 16 6.0 12.0 0.00 0.00 0.00 68 1018.2
20260501201448 53 336 3.0 11.0 0.00 0.00 0.00 68 1018.1
20260501195951 53 354 2.0 14.0 0.00 0.00 0.00 69 1018.0
20260501194448 53 3 4.0 9.0 0.00 0.00 0.00 70 1018.1
20260501192949 53 44 4.0 10.0 0.00 0.00 0.00 69 1018.2
20260501191442 53 6 3.0 11.0 0.00 0.00 0.00 68 1018.2
20260501185939 53 347 2.0 14.0 0.00 0.00 0.00 69 1017.9
20260501184438 53 324 2.0 10.0 0.00 0.00 0.00 69 1018.0
20260501182935 53 18 3.0 11.0 0.00 0.00 0.00 69 1017.9
20260501181434 53 87 2.0 12.0 0.00 0.00 0.00 69 1017.8
20260501175930 54 0 2.0 15.0 0.00 0.00 0.00 68 1017.5
20260501174432 54 58 3.0 13.0 0.00 0.00 0.00 67 1017.5
20260501172930 54 34 5.0 14.0 0.00 0.00 0.00 68 1017.4
20260501171432 53 0 5.0 12.0 0.00 0.00 0.00 68 1017.5